Location: DARK SKY Beskydy - Park tmavé oblohy, www.darkskybeskydy.cz
(49.4926°N, 18.5016°E)
Time: 02:59:33
(UTC+01:00)

N. Korean satellite - Pass Details

Date: 16 December 2022
Orbit: 407 x 442 km, 97.3° (Epoch: 05 February)

Event Time Altitude Azimuth Distance (km) Brightness Sun altitude
Rises 16:28:05 0° 179° (S) 2,479 10.6 -6.5°
Reaches altitude 10° 16:30:10 10° 185° (S) 1,612 9.7 -6.8°
Maximum altitude 16:33:31 47° 261° (W) 625 7.7 -7.3°
Drops below altitude 10° 16:36:55 10° 336° (NNW) 1,627 9.2 -7.7°
Sets 16:39:02 0° 343° (NNW) 2,505 10.1 -8.1°
